Hourly Data Report for September 05, 2017

All times are specified in Local Standard Time (LST). Add 1 hour to adjust for Daylight Saving Time where and when it is observed.

WINNIPEG A CS
MANITOBA

49°55'00.000" N
97°14'58.000" W
238.70 m
502S001
71849
XWG

Download Data

Hourly Data (September 2017)
Hourly Data Report for September 5, 2017
Temp Definition
°C
Dew Point Temp Definition
°C
Rel Hum Definition
%
Wind Dir Definition
10's deg

Wind Spd Definition
km/h
Visibility Definition
km
Stn Press Definition
kPa
Hmdx Definition


Wind Chill Definition


Weather Definition


TIME
00:00 12.2 2.5 51 32 22   98.78     LegendNANA
01:00 11.6 2.3 53 33 17   98.83     LegendNANA
02:00 12.2 5.0 61 33 22   98.87     LegendNANA
03:00 11.3 4.0 60 34 19   98.91     LegendNANA
04:00 6.7 3.4 80 33 13   98.98     LegendNANA
05:00 6.0 3.7 85 31 12   99.01     LegendNANA
06:00 3.3 2.3 93 30 12   99.06     LegendNANA
07:00 8.8 6.8 87 30 12   99.10     LegendNANA
08:00 12.2 7.6 74 33 22   99.13     LegendNANA
09:00 14.6 7.3 61 33 27   99.16     LegendNANA
10:00 16.7 5.3 47 33 30   99.19     LegendNANA
11:00 17.1 5.4 46 34 31   99.20     LegendNANA
12:00 17.4 3.6 40 34 31   99.19     LegendNANA
13:00 18.1 3.5 38 34 26   99.19     LegendNANA
14:00 18.7 3.1 35 33 27   99.16     LegendNANA
15:00 18.8 2.8 34 34 27   99.16     LegendNANA
16:00 18.6 1.8 33 33 28   99.17     LegendNANA
17:00 17.9 3.0 37 1 22   99.16     LegendNANA
18:00 17.4 1.8 35 33 26   99.17     LegendNANA
19:00 13.8 2.7 47 36 12   99.19     LegendNANA
20:00 11.9 2.9 54 2 13   99.22     LegendNANA
21:00 5.9 1.5 74 31 8   99.25     LegendNANA
22:00 4.1 2.0 87 30 12   99.26     LegendNANA
23:00 5.3 2.3 81 31 8   99.25     LegendNANA

Notes on Data Quality.

Legend

  • E = Estimated
  • M = Missing
  • NA = Not Available
  • ‡ = Partner data that is not subject to review by the National Climate Archives
Date modified: